When you browse on this site, cookies collect data to enhance your experience and personalize the content and advertising you see.
Visit our Privacy Policy to learn more. By continuing to use the site, you agree to this use of cookies and data.
  • In Sweden
  • List of Countries
  • For 7 days
  • Water Temperature
  • Satellite Maps
  • Weather Map
  • Weather Widgets
  • user-avatar
    Login

    Hourly Weather Nekrasovo

    Today, 18 January, Friday

    Time Temperature Precipitation Wind Pressure Humidity
    00:00 -2°C° 0.1 mm 6 mps 726 mmHg 88%
    01:00 -2°C° 0.1 mm 6 mps 727 mmHg 88%
    02:00 -2°C° 0.1 mm 6 mps 727 mmHg 87%
    03:00 -2°C° 0 mm 6 mps 727 mmHg 87%
    04:00 -2°C° 0 mm 6 mps 728 mmHg 88%
    05:00 -3°C° 0 mm 6 mps 728 mmHg 88%
    06:00 -2°C° 0.1 mm 5 mps 729 mmHg 88%
    07:00 -2°C° 0.1 mm 5 mps 729 mmHg 89%
    08:00 -2°C° 0.1 mm 5 mps 729 mmHg 89%
    09:00 -2°C° 0.1 mm 5 mps 730 mmHg 89%
    10:00 -2°C° 0.1 mm 5 mps 730 mmHg 89%
    11:00 -2°C° 0.1 mm 4 mps 730 mmHg 89%
    12:00 -2°C° 0.1 mm 4 mps 730 mmHg 90%
    13:00 -2°C° 0.1 mm 4 mps 730 mmHg 90%
    14:00 -2°C° 0.1 mm 4 mps 730 mmHg 90%
    15:00 -1°C° 0.8 mm 4 mps 729 mmHg 91%
    16:00 -1°C° 0.8 mm 5 mps 729 mmHg 91%
    17:00 -1°C° 0.8 mm 5 mps 729 mmHg 92%
    18:00 -2°C° 0.6 mm 5 mps 729 mmHg 91%
    19:00 -2°C° 0.6 mm 5 mps 729 mmHg 91%
    20:00 -2°C° 0.6 mm 5 mps 729 mmHg 91%
    21:00 -6°C° 0.4 mm 5 mps 730 mmHg 91%
    22:00 -8°C° 0.4 mm 4 mps 730 mmHg 91%
    23:00 -10°C° 0.4 mm 4 mps 731 mmHg 90%

    Tomorrow, 19 January, Saturday

    Time Temperature Precipitation Wind Pressure Humidity
    00:00 -10°C° 0 mm 4 mps 732 mmHg 91%
    01:00 -10°C° 0 mm 3 mps 733 mmHg 92%
    02:00 -12°C° 0 mm 3 mps 734 mmHg 93%
    03:00 -12°C° 0 mm 3 mps 734 mmHg 94%
    04:00 -12°C° 0 mm 3 mps 735 mmHg 95%
    05:00 -13°C° 0 mm 3 mps 735 mmHg 96%
    06:00 -12°C° 0 mm 4 mps 735 mmHg 94%
    07:00 -11°C° 0 mm 4 mps 736 mmHg 93%
    08:00 -11°C° 0 mm 4 mps 736 mmHg 92%
    09:00 -10°C° 0 mm 4 mps 736 mmHg 91%
    10:00 -9°C° 0 mm 4 mps 737 mmHg 90%
    11:00 -10°C° 0 mm 5 mps 737 mmHg 89%
    12:00 -10°C° 0 mm 5 mps 737 mmHg 89%
    13:00 -10°C° 0 mm 5 mps 737 mmHg 89%
    14:00 -8°C° 0 mm 5 mps 738 mmHg 89%
    15:00 -8°C° 0.1 mm 5 mps 738 mmHg 89%
    16:00 -9°C° 0.1 mm 4 mps 738 mmHg 89%
    17:00 -9°C° 0.1 mm 4 mps 739 mmHg 90%
    18:00 -9°C° 0 mm 4 mps 739 mmHg 90%
    19:00 -9°C° 0 mm 4 mps 739 mmHg 91%
    20:00 -10°C° 0 mm 4 mps 739 mmHg 92%
    21:00 -10°C° 0 mm 4 mps 740 mmHg 92%
    22:00 -9°C° 0 mm 3 mps 740 mmHg 93%
    23:00 -9°C° 0 mm 3 mps 740 mmHg 94%

    Day after tomorrow, 20 January, Sunday

    Time Temperature Precipitation Wind Pressure Humidity
    00:00 -10°C° 0 mm 4 mps 740 mmHg 94%
    01:00 -10°C° 0 mm 4 mps 741 mmHg 94%
    02:00 -10°C° 0 mm 4 mps 741 mmHg 94%
    03:00 -10°C° 0 mm 4 mps 740 mmHg 93%
    04:00 -10°C° 0 mm 5 mps 740 mmHg 92%
    05:00 -10°C° 0 mm 5 mps 740 mmHg 91%
    06:00 -10°C° 0.1 mm 5 mps 740 mmHg 90%
    07:00 -9°C° 0.1 mm 6 mps 739 mmHg 89%
    08:00 -8°C° 0.1 mm 6 mps 739 mmHg 88%
    09:00 -8°C° 0.1 mm 6 mps 739 mmHg 87%
    10:00 -6°C° 0.1 mm 6 mps 739 mmHg 86%
    11:00 -6°C° 0.1 mm 6 mps 738 mmHg 86%
    12:00 -6°C° 0.1 mm 6 mps 738 mmHg 86%
    13:00 -6°C° 0.1 mm 6 mps 738 mmHg 87%
    14:00 -6°C° 0.1 mm 6 mps 737 mmHg 87%
    15:00 -6°C° 0.4 mm 6 mps 737 mmHg 88%
    16:00 -6°C° 0.4 mm 6 mps 737 mmHg 89%
    17:00 -6°C° 0.4 mm 6 mps 737 mmHg 90%
    18:00 -7°C° 0.3 mm 5 mps 738 mmHg 92%
    19:00 -7°C° 0.3 mm 4 mps 738 mmHg 93%
    20:00 -6°C° 0.3 mm 3 mps 738 mmHg 94%
    21:00 -6°C° 0.3 mm 2 mps 738 mmHg 95%
    22:00 -7°C° 0.3 mm 2 mps 738 mmHg 96%
    23:00 -6°C° 0.3 mm 1 mps 738 mmHg 97%

    21 January, Monday

    Time Temperature Precipitation Wind Pressure Humidity
    00:00 -7°C° 0.1 mm 1 mps 738 mmHg 97%
    01:00 -7°C° 0.1 mm 1 mps 738 mmHg 97%
    02:00 -8°C° 0.1 mm 1 mps 738 mmHg 97%
    03:00 -9°C° 0 mm 2 mps 738 mmHg 97%
    04:00 -10°C° 0 mm 2 mps 738 mmHg 97%
    05:00 -12°C° 0 mm 2 mps 738 mmHg 97%
    06:00 -13°C° 0 mm 2 mps 738 mmHg 97%
    07:00 -14°C° 0 mm 2 mps 738 mmHg 97%
    08:00 -15°C° 0 mm 2 mps 738 mmHg 97%
    09:00 -14°C° 0 mm 2 mps 738 mmHg 96%
    10:00 -13°C° 0 mm 2 mps 738 mmHg 95%
    11:00 -14°C° 0 mm 3 mps 739 mmHg 94%
    12:00 -13°C° 0 mm 3 mps 739 mmHg 92%
    13:00 -13°C° 0 mm 3 mps 739 mmHg 90%
    14:00 -14°C° 0 mm 4 mps 739 mmHg 88%
    15:00 -14°C° 0 mm 4 mps 740 mmHg 89%
    16:00 -14°C° 0 mm 3 mps 740 mmHg 90%
    17:00 -14°C° 0 mm 3 mps 740 mmHg 91%
    18:00 -15°C° 0 mm 3 mps 741 mmHg 93%
    19:00 -16°C° 0 mm 3 mps 741 mmHg 94%
    20:00 -16°C° 0 mm 2 mps 741 mmHg 95%
    21:00 -16°C° 0 mm 2 mps 741 mmHg 96%
    22:00 -17°C° 0 mm 2 mps 741 mmHg 97%
    23:00 -18°C° 0 mm 2 mps 742 mmHg 98%

    22 January, Tuesday

    Time Temperature Precipitation Wind Pressure Humidity
    00:00 -18°C° 0 mm 2 mps 742 mmHg 98%
    01:00 -18°C° 0 mm 2 mps 742 mmHg 98%
    02:00 -18°C° 0 mm 2 mps 742 mmHg 98%
    03:00 -18°C° 0 mm 2 mps 742 mmHg 98%
    04:00 -18°C° 0 mm 2 mps 742 mmHg 98%
    05:00 -18°C° 0 mm 2 mps 742 mmHg 97%
    06:00 -18°C° 0 mm 2 mps 743 mmHg 98%
    07:00 -19°C° 0 mm 2 mps 743 mmHg 98%
    08:00 -19°C° 0 mm 2 mps 743 mmHg 98%
    09:00 -18°C° 0 mm 2 mps 743 mmHg 97%
    10:00 -17°C° 0 mm 2 mps 744 mmHg 96%
    11:00 -17°C° 0 mm 2 mps 744 mmHg 95%
    12:00 -16°C° 0 mm 2 mps 744 mmHg 95%
    13:00 -16°C° 0 mm 2 mps 744 mmHg 94%
    14:00 -15°C° 0 mm 2 mps 744 mmHg 94%
    15:00 -17°C° 0 mm 2 mps 745 mmHg 95%
    16:00 -18°C° 0 mm 2 mps 745 mmHg 97%
    17:00 -19°C° 0 mm 2 mps 745 mmHg 98%
    18:00 -18°C° 0 mm 1 mps 745 mmHg 99%
    19:00 -18°C° 0 mm 1 mps 745 mmHg 99%
    20:00 -18°C° 0 mm 1 mps 745 mmHg 99%
    21:00 -19°C° 0 mm 1 mps 745 mmHg 99%
    22:00 -19°C° 0 mm 1 mps 745 mmHg 99%
    23:00 -19°C° 0 mm 1 mps 745 mmHg 98%

    23 January, Wednesday

    Time Temperature Precipitation Wind Pressure Humidity
    00:00 -19°C° 0 mm 1 mps 745 mmHg 98%
    01:00 -18°C° 0 mm 1 mps 745 mmHg 97%
    02:00 -20°C° 0 mm 2 mps 745 mmHg 96%
    03:00 -20°C° 0 mm 2 mps 745 mmHg 97%
    04:00 -19°C° 0 mm 2 mps 745 mmHg 98%
    05:00 -18°C° 0 mm 2 mps 745 mmHg 98%
    06:00 -17°C° 0 mm 2 mps 745 mmHg 98%
    07:00 -16°C° 0 mm 2 mps 745 mmHg 97%
    08:00 -15°C° 0 mm 2 mps 745 mmHg 97%
    09:00 -14°C° 0 mm 2 mps 745 mmHg 96%
    10:00 -15°C° 0 mm 3 mps 745 mmHg 95%
    11:00 -14°C° 0 mm 3 mps 745 mmHg 95%
    12:00 -14°C° 0 mm 3 mps 745 mmHg 95%
    13:00 -13°C° 0 mm 3 mps 745 mmHg 94%
    14:00 -13°C° 0 mm 3 mps 745 mmHg 94%
    15:00 -13°C° 0 mm 3 mps 745 mmHg 94%
    16:00 -14°C° 0 mm 3 mps 745 mmHg 95%
    17:00 -14°C° 0 mm 3 mps 745 mmHg 95%
    18:00 -14°C° 0 mm 2 mps 745 mmHg 96%
    19:00 -15°C° 0 mm 2 mps 745 mmHg 96%
    20:00 -16°C° 0 mm 2 mps 745 mmHg 97%
    21:00 -17°C° 0 mm 2 mps 745 mmHg 97%
    22:00 -18°C° 0 mm 2 mps 745 mmHg 97%
    23:00 -19°C° 0 mm 2 mps 745 mmHg 96%
    Show more